| time (UTC) | temp F | wind direction | speed knots | gust knots | rain 1hr in | rain 24hr in | rain mn in | humidity % | barometer mb |
| 20260904164817 | 93 | 161 | 7.0 | 11.3 | 0.00 | 0.00 | 0.00 | 46 | 1016.9 |
| 20260904163816 | 92 | 174 | 6.1 | 14.8 | 0.00 | 0.00 | 0.00 | 47 | 1016.9 |
| 20260904162815 | 92 | 130 | 5.2 | 11.3 | 0.00 | 0.00 | 0.00 | 49 | 1016.9 |
| 20260904161816 | 92 | 220 | 6.1 | 10.4 | 0.00 | 0.00 | 0.00 | 52 | 1017.1 |
| 20260904160811 | 91 | 188 | 7.0 | 13.9 | 0.00 | 0.00 | 0.00 | 54 | 1017.0 |
| 20260904155812 | 90 | 163 | 6.1 | 10.4 | 0.00 | 0.00 | 0.00 | 54 | 1017.1 |
| 20260904154809 | 90 | 180 | 6.1 | 12.2 | 0.00 | 0.00 | 0.00 | 55 | 1017.1 |
| 20260904152809 | 88 | 203 | 6.1 | 12.2 | 0.00 | 0.00 | 0.00 | 58 | 1017.1 |
| 20260904151809 | 87 | 193 | 5.2 | 10.4 | 0.00 | 0.00 | 0.00 | 59 | 1017.1 |
| 20260904150809 | 87 | 168 | 2.6 | 7.8 | 0.00 | 0.00 | 0.00 | 61 | 1017.0 |
| 20260904145811 | 86 | 178 | 2.6 | 6.1 | 0.00 | 0.00 | 0.00 | 64 | 1017.2 |
| 20260904145306 | 85 | 150 | 2.6 | 7.0 | 0.00 | 0.00 | 0.00 | 66 | 1017.0 |
| 20260904143809 | 84 | 190 | 1.7 | 5.2 | 0.00 | 0.00 | 0.00 | 68 | 1017.1 |
| 20260904142807 | 83 | 55 | 0.9 | 4.3 | 0.00 | 0.00 | 0.00 | 69 | 1017.1 |
| 20260904141808 | 82 | 146 | 0.9 | 2.6 | 0.00 | 0.00 | 0.00 | 70 | 1017.1 |
| 20260904140805 | 82 | 196 | 1.7 | 4.3 | 0.00 | 0.00 | 0.00 | 71 | 1017.1 |
| 20260904135802 | 81 | 128 | 0.9 | 3.5 | 0.00 | 0.00 | 0.00 | 71 | 1017.2 |
| 20260904134803 | 80 | 109 | 0.9 | 1.7 | 0.00 | 0.00 | 0.00 | 73 | 1017.1 |
| 20260904133805 | 79 | 132 | 0.0 | 0.0 | 0.00 | 0.00 | 0.00 | 74 | 1017.1 |
| 20260904132802 | 78 | 67 | 0.0 | 0.0 | 0.00 | 0.00 | 0.00 | 77 | 1017.0 |
| 20260904131803 | 77 | 84 | 0.0 | 0.0 | 0.00 | 0.00 | 0.00 | 80 | 1017.0 |
| 20260904131250 | 76 | 142 | 0.0 | 0.0 | 0.00 | 0.00 | 0.00 | 81 | 1016.9 |
| 20260904130243 | 76 | 142 | 0.0 | 0.9 | 0.00 | 0.00 | 0.00 | 81 | 1016.8 |
| 20260904125247 | 75 | 47 | 0.0 | 1.7 | 0.00 | 0.00 | 0.00 | 82 | 1016.7 |
| 20260904123802 | 74 | 57 | 0.0 | 0.9 | 0.00 | 0.00 | 0.00 | 83 | 1016.7 |
| 20260904123240 | 73 | 36 | 0.0 | 0.0 | 0.00 | 0.00 | 0.00 | 84 | 1016.6 |
| 20260904121803 | 73 | 36 | 0.0 | 0.9 | 0.00 | 0.00 | 0.00 | 85 | 1016.5 |
| 20260904120802 | 72 | 0 | 0.0 | 0.0 | 0.00 | 0.00 | 0.00 | 86 | 1016.4 |
| 20260904115759 | 72 | 0 | 0.0 | 0.0 | 0.00 | 0.00 | 0.00 | 85 | 1016.4 |
| 20260904114800 | 72 | 0 | 0.0 | 0.0 | 0.00 | 0.00 | 0.00 | 85 | 1016.4 |
| 20260904113758 | 72 | 0 | 0.0 | 0.0 | 0.00 | 0.00 | 0.00 | 84 | 1016.3 |
| 20260904113233 | 72 | 0 | 0.0 | 0.0 | 0.00 | 0.00 | 0.00 | 84 | 1016.3 |
| 20260904111759 | 73 | 0 | 0.9 | 2.6 | 0.00 | 0.00 | 0.00 | 82 | 1016.3 |
| 20260904110759 | 74 | 340 | 0.9 | 3.5 | 0.00 | 0.00 | 0.00 | 80 | 1016.3 |
| 20260904105759 | 75 | 133 | 0.0 | 0.0 | 0.00 | 0.00 | 0.00 | 78 | 1016.2 |
| 20260904104800 | 76 | 133 | 0.0 | 0.0 | 0.00 | 0.00 | 0.00 | 76 | 1016.1 |
| 20260904102756 | 76 | 133 | 0.9 | 1.7 | 0.00 | 0.00 | 0.00 | 76 | 1016.0 |
| 20260904101759 | 76 | 159 | 0.9 | 1.7 | 0.00 | 0.00 | 0.00 | 76 | 1015.9 |
| 20260904100757 | 76 | 159 | 1.7 | 2.6 | 0.00 | 0.00 | 0.00 | 76 | 1015.7 |
| 20260904095756 | 76 | 132 | 0.9 | 2.6 | 0.00 | 0.00 | 0.00 | 76 | 1015.7 |
| 20260904094758 | 76 | 130 | 0.9 | 2.6 | 0.00 | 0.00 | 0.00 | 76 | 1015.6 |
| 20260904093800 | 76 | 123 | 1.7 | 2.6 | 0.00 | 0.00 | 0.00 | 77 | 1015.6 |
| 20260904092758 | 76 | 133 | 2.6 | 3.5 | 0.00 | 0.00 | 0.00 | 77 | 1015.5 |
| 20260904091756 | 76 | 123 | 1.7 | 3.5 | 0.00 | 0.00 | 0.00 | 76 | 1015.4 |
| 20260904090758 | 76 | 130 | 0.9 | 2.6 | 0.00 | 0.00 | 0.00 | 76 | 1015.5 |
| 20260904085757 | 76 | 134 | 1.7 | 2.6 | 0.00 | 0.00 | 0.00 | 76 | 1015.5 |
| 20260904084756 | 75 | 134 | 0.9 | 2.6 | 0.00 | 0.00 | 0.00 | 78 | 1015.5 |
| 20260904084233 | 76 | 125 | 0.0 | 0.9 | 0.00 | 0.00 | 0.00 | 75 | 1015.5 |
| 20260904083233 | 77 | 125 | 0.0 | 0.0 | 0.00 | 0.00 | 0.00 | 73 | 1015.4 |
| 20260904081754 | 77 | 124 | 0.0 | 0.0 | 0.00 | 0.00 | 0.00 | 73 | 1015.5 |
| 20260904080754 | 77 | 124 | 0.0 | 1.7 | 0.00 | 0.00 | 0.00 | 74 | 1015.5 |
| 20260904075750 | 77 | 117 | 0.9 | 2.6 | 0.00 | 0.00 | 0.00 | 74 | 1015.3 |
| 20260904074745 | 77 | 120 | 0.0 | 1.7 | 0.00 | 0.00 | 0.00 | 74 | 1015.4 |
| 20260904073746 | 77 | 121 | 0.9 | 1.7 | 0.00 | 0.00 | 0.00 | 74 | 1015.3 |
| 20260904072746 | 76 | 125 | 0.0 | 0.9 | 0.00 | 0.00 | 0.00 | 75 | 1015.3 |
| 20260904071746 | 76 | 125 | 0.0 | 0.0 | 0.00 | 0.00 | 0.00 | 75 | 1015.5 |
| 20260904070747 | 76 | 125 | 0.0 | 0.0 | 0.00 | 0.00 | 0.00 | 75 | 1015.5 |
| 20260904065745 | 77 | 125 | 0.0 | 0.0 | 0.00 | 0.00 | 0.00 | 74 | 1015.5 |
| 20260904064743 | 77 | 125 | 0.0 | 0.0 | 0.00 | 0.00 | 0.00 | 73 | 1015.5 |
| 20260904064222 | 77 | 125 | 0.0 | 0.0 | 0.00 | 0.00 | 0.00 | 72 | 1015.5 |
| 20260904062736 | 78 | 125 | 0.0 | 0.0 | 0.00 | 0.00 | 0.00 | 71 | 1015.4 |
| 20260904061736 | 79 | 125 | 0.0 | 0.0 | 0.00 | 0.00 | 0.00 | 69 | 1015.5 |
| 20260904060735 | 79 | 125 | 0.0 | 0.0 | 0.00 | 0.00 | 0.00 | 68 | 1015.4 |
| 20260904055736 | 80 | 125 | 0.9 | 1.7 | 0.00 | 0.00 | 0.00 | 68 | 1015.3 |
| 20260904054736 | 79 | 115 | 0.9 | 2.6 | 0.00 | 0.00 | 0.00 | 69 | 1015.2 |
| 20260904053735 | 79 | 123 | 0.9 | 2.6 | 0.00 | 0.00 | 0.00 | 70 | 1015.2 |
| 20260904052735 | 79 | 108 | 0.0 | 0.9 | 0.00 | 0.00 | 0.00 | 70 | 1015.2 |
| 20260904051732 | 79 | 108 | 0.0 | 0.0 | 0.00 | 0.00 | 0.00 | 69 | 1015.2 |
| 20260904050732 | 80 | 108 | 0.0 | 0.0 | 0.00 | 0.00 | 0.00 | 68 | 1015.1 |
| 20260904045730 | 81 | 108 | 0.0 | 0.0 | 0.00 | 0.00 | 0.00 | 67 | 1015.2 |
| 20260904044726 | 81 | 108 | 0.0 | 0.0 | 0.00 | 0.00 | 0.00 | 64 | 1015.3 |
| 20260904044202 | 82 | 108 | 0.0 | 0.9 | 0.00 | 0.00 | 0.00 | 63 | 1015.2 |
| 20260904042723 | 82 | 108 | 0.0 | 2.6 | 0.00 | 0.00 | 0.00 | 62 | 1015.2 |
| 20260904040723 | 83 | 107 | 0.9 | 2.6 | 0.00 | 0.00 | 0.00 | 62 | 1015.1 |
| 20260904035723 | 82 | 92 | 0.0 | 2.6 | 0.00 | 0.00 | 0.00 | 63 | 1014.9 |
| 20260904034716 | 83 | 113 | 0.9 | 1.7 | 0.00 | 0.00 | 0.00 | 61 | 1014.8 |
| 20260904033715 | 84 | 123 | 0.9 | 1.7 | 0.00 | 0.00 | 0.00 | 59 | 1014.9 |
| 20260904033155 | 85 | 121 | 1.7 | 2.6 | 0.00 | 0.00 | 0.00 | 56 | 1015.1 |
| 20260904031712 | 86 | 128 | 1.7 | 2.6 | 0.00 | 0.00 | 0.00 | 56 | 1015.0 |
| 20260904030710 | 86 | 134 | 2.6 | 3.5 | 0.00 | 0.00 | 0.00 | 55 | 1014.9 |
| 20260904025712 | 87 | 137 | 2.6 | 4.3 | 0.00 | 0.00 | 0.00 | 54 | 1014.9 |
| 20260904024711 | 87 | 138 | 2.6 | 3.5 | 0.00 | 0.00 | 0.00 | 54 | 1014.8 |
| 20260904023711 | 87 | 134 | 2.6 | 5.2 | 0.00 | 0.00 | 0.00 | 53 | 1014.7 |
| 20260904022712 | 87 | 136 | 2.6 | 3.5 | 0.00 | 0.00 | 0.00 | 53 | 1014.5 |
| 20260904021705 | 88 | 142 | 2.6 | 4.3 | 0.00 | 0.00 | 0.00 | 52 | 1014.5 |
| 20260904020705 | 88 | 152 | 2.6 | 5.2 | 0.00 | 0.00 | 0.00 | 52 | 1014.2 |
| 20260904015704 | 88 | 142 | 2.6 | 3.5 | 0.00 | 0.00 | 0.00 | 51 | 1014.2 |
| 20260904014704 | 89 | 136 | 2.6 | 3.5 | 0.00 | 0.00 | 0.00 | 50 | 1014.0 |
| 20260904014153 | 89 | 136 | 1.7 | 3.5 | 0.00 | 0.00 | 0.00 | 50 | 1013.9 |
| 20260904012704 | 89 | 158 | 2.6 | 4.3 | 0.00 | 0.00 | 0.00 | 49 | 1013.6 |
| 20260904011706 | 90 | 158 | 2.6 | 4.3 | 0.00 | 0.00 | 0.00 | 48 | 1013.5 |
| 20260904010705 | 90 | 137 | 2.6 | 6.1 | 0.00 | 0.00 | 0.00 | 47 | 1013.4 |
| 20260904005705 | 91 | 123 | 3.5 | 5.2 | 0.00 | 0.00 | 0.00 | 47 | 1013.4 |
| 20260904004703 | 91 | 128 | 3.5 | 6.1 | 0.00 | 0.00 | 0.00 | 46 | 1013.4 |
| 20260904004140 | 92 | 138 | 4.3 | 7.0 | 0.00 | 0.00 | 0.00 | 46 | 1013.4 |
| 20260904002701 | 92 | 129 | 4.3 | 7.8 | 0.00 | 0.00 | 0.00 | 45 | 1013.3 |
| 20260904002137 | 93 | 155 | 6.1 | 10.4 | 0.00 | 0.00 | 0.00 | 44 | 1013.4 |
| 20260904000703 | 93 | 166 | 7.0 | 10.4 | 0.00 | 0.00 | 0.00 | 44 | 1013.4 |
| 20260903235703 | 94 | 176 | 5.2 | 7.8 | 0.00 | 0.00 | 0.00 | 44 | 1013.4 |
| 20260903234702 | 94 | 142 | 6.1 | 9.6 | 0.00 | 0.00 | 0.00 | 43 | 1013.3 |
| 20260903233703 | 94 | 130 | 6.1 | 13.0 | 0.00 | 0.00 | 0.00 | 42 | 1013.3 |
| 20260903232704 | 95 | 152 | 7.0 | 13.9 | 0.00 | 0.00 | 0.00 | 42 | 1013.2 |
| 20260903231701 | 94 | 189 | 7.8 | 13.9 | 0.00 | 0.00 | 0.00 | 41 | 1013.1 |
| 20260903230702 | 95 | 166 | 7.0 | 13.0 | 0.00 | 0.00 | 0.00 | 42 | 1013.1 |
| 20260903230142 | 95 | 155 | 7.8 | 13.9 | 0.00 | 0.00 | 0.00 | 41 | 1013.2 |
| 20260903224702 | 95 | 184 | 7.0 | 11.3 | 0.00 | 0.00 | 0.00 | 41 | 1013.3 |
| 20260903223703 | 96 | 157 | 6.1 | 12.2 | 0.00 | 0.00 | 0.00 | 40 | 1013.1 |
| 20260903222701 | 96 | 168 | 8.7 | 16.5 | 0.00 | 0.00 | 0.00 | 41 | 1013.2 |
| 20260903221703 | 96 | 161 | 6.1 | 8.7 | 0.00 | 0.00 | 0.00 | 40 | 1013.2 |
| 20260903220703 | 97 | 161 | 6.1 | 13.0 | 0.00 | 0.00 | 0.00 | 40 | 1013.3 |
| 20260903215702 | 97 | 153 | 7.8 | 17.4 | 0.00 | 0.00 | 0.00 | 40 | 1013.4 |
| 20260903214701 | 96 | 168 | 7.8 | 12.2 | 0.00 | 0.00 | 0.00 | 41 | 1013.3 |
| 20260903214142 | 96 | 174 | 7.8 | 15.6 | 0.00 | 0.00 | 0.00 | 42 | 1013.6 |
| 20260903212701 | 97 | 171 | 7.8 | 13.0 | 0.00 | 0.00 | 0.00 | 41 | 1013.7 |
| 20260903211702 | 97 | 187 | 7.8 | 12.2 | 0.00 | 0.00 | 0.00 | 41 | 1013.7 |
| 20260903211134 | 96 | 161 | 7.0 | 14.8 | 0.00 | 0.00 | 0.00 | 41 | 1013.9 |
| 20260903205658 | 96 | 171 | 7.8 | 14.8 | 0.00 | 0.00 | 0.00 | 42 | 1013.8 |
| 20260903204657 | 96 | 173 | 7.8 | 14.8 | 0.00 | 0.00 | 0.00 | 43 | 1014.0 |
| 20260903203658 | 95 | 175 | 6.1 | 13.0 | 0.00 | 0.00 | 0.00 | 43 | 1014.0 |
| 20260903202659 | 96 | 153 | 7.0 | 15.6 | 0.00 | 0.00 | 0.00 | 43 | 1014.1 |
| 20260903201657 | 97 | 182 | 6.1 | 15.6 | 0.00 | 0.00 | 0.00 | 41 | 1014.1 |
| 20260903200659 | 97 | 182 | 6.1 | 10.4 | 0.00 | 0.00 | 0.00 | 40 | 1014.2 |
| 20260903195700 | 96 | 144 | 7.0 | 12.2 | 0.00 | 0.00 | 0.00 | 42 | 1014.2 |
| 20260903194657 | 97 | 123 | 7.8 | 14.8 | 0.00 | 0.00 | 0.00 | 41 | 1014.3 |
| 20260903193658 | 97 | 129 | 6.1 | 11.3 | 0.00 | 0.00 | 0.00 | 41 | 1014.3 |
| 20260903192659 | 96 | 190 | 7.8 | 17.4 | 0.00 | 0.00 | 0.00 | 43 | 1014.4 |
| 20260903191659 | 97 | 167 | 7.8 | 17.4 | 0.00 | 0.00 | 0.00 | 41 | 1014.5 |
| 20260903190659 | 96 | 164 | 7.8 | 17.4 | 0.00 | 0.00 | 0.00 | 42 | 1014.5 |
| 20260903185658 | 96 | 196 | 7.8 | 13.9 | 0.00 | 0.00 | 0.00 | 42 | 1014.6 |
| 20260903184655 | 96 | 175 | 7.8 | 15.6 | 0.00 | 0.00 | 0.00 | 42 | 1014.9 |
| 20260903183657 | 96 | 155 | 9.6 | 17.4 | 0.00 | 0.00 | 0.00 | 41 | 1014.9 |
| 20260903182654 | 96 | 165 | 9.6 | 19.1 | 0.00 | 0.00 | 0.00 | 42 | 1015.1 |
| 20260903181655 | 95 | 163 | 9.6 | 15.6 | 0.00 | 0.00 | 0.00 | 43 | 1015.1 |
| 20260903180651 | 95 | 163 | 8.7 | 19.1 | 0.00 | 0.00 | 0.00 | 43 | 1015.2 |
| 20260903175651 | 94 | 182 | 8.7 | 14.8 | 0.00 | 0.00 | 0.00 | 43 | 1015.6 |
| 20260903174648 | 94 | 171 | 5.2 | 12.2 | 0.00 | 0.00 | 0.00 | 45 | 1015.6 |
| 20260903173645 | 94 | 176 | 7.8 | 15.6 | 0.00 | 0.00 | 0.00 | 46 | 1015.9 |
| 20260903172645 | 94 | 194 | 7.8 | 13.9 | 0.00 | 0.00 | 0.00 | 46 | 1016.0 |
| 20260903172126 | 93 | 186 | 7.8 | 13.9 | 0.00 | 0.00 | 0.00 | 47 | 1016.2 |
| 20260903170644 | 92 | 175 | 7.8 | 14.8 | 0.00 | 0.00 | 0.00 | 48 | 1016.3 |
| 20260903165637 | 92 | 146 | 7.8 | 12.2 | 0.00 | 0.00 | 0.00 | 49 | 1016.4 |